Mexia Limestone County Airpor, TX

8:47 PM CDT on March 29, 2017 (GMT -0500)
Mexia-Limestone County

Weather History for KLXY - June, 2014

Change the Weather History Date:

Friday, June 6, 2014

  Actual Average (KACT) Record (KACT)
Temperature  
Mean Temperature 80 °F -  
Max Temperature 89 °F 87 °F 102 °F (2011)
Min Temperature 70 °F 68 °F 57 °F (1998)
Cooling Degree Days 14    
Growing Degree Days 30 (Base 50)    
Moisture  
Dew Point 70 °F    
Average Humidity 75    
Maximum Humidity 98    
Minimum Humidity 52    
Precipitation  
Precipitation 0.00 in - - ()
Sea Level Pressure  
Sea Level Pressure 29.90 in    
Wind  
Wind Speed 8 mph (South)    
Max Wind Speed 17 mph    
Max Gust Speed 24 mph    
Visibility 10 miles    
Events      
Averages and records for this station are not official NWS values.
T = Trace of Precipitation, MM = Missing Value Source: NWS Daily Summary

Daily Weather History Graph

Daily Weather History Graph

Search for Another Location

Airport or City:

Trip Planner

Search our weather history database for the weather conditions in past years. The results will help you decide how hot, cold, wet, or windy it might be!

Date:

Astronomy

Jun. 06, 2014 Rise Set
Actual Time 6:20 AM CDT 8:29 PM CDT
Civil Twilight 5:52 AM CDT 8:56 PM CDT
Nautical Twilight 5:18 AM CDT 9:30 PM CDT
Astronomical Twilight 4:42 AM CDT 10:07 PM CDT
Moon 2:11 PM CDT (6/6) 1:48 AM CDT (6/6)
Length of Visible Light 15h 04m
Length of Day
14h 08m
First Quarter, 58% of the Moon is Illuminated
Jun 6
First Quarter
Jun 12
Full
Jun 19
Last Quarter
Jun 27
New
Jul 5
First Quarter

Hourly Weather History & Observations

Time (CDT) Temp. Heat Index Dew Point Humidity Pressure Visibility Wind Dir Wind Speed Gust Speed Precip Events Conditions
12:15 AM 76.1 °F - 70.2 °F 82% 29.86 in 10.0 mi South 4.6 mph - N/A   Clear
12:35 AM 75.6 °F - 70.2 °F 83% 29.86 in 10.0 mi South 3.5 mph - N/A   Clear
12:55 AM 74.5 °F - 69.8 °F 85% 29.87 in 10.0 mi SSE 3.5 mph - N/A   Clear
1:15 AM 74.3 °F - 70.0 °F 86% 29.87 in 10.0 mi SSE 4.6 mph - N/A   Clear
1:35 AM 73.4 °F - 70.0 °F 89% 29.87 in 10.0 mi SSE 4.6 mph - N/A   Clear
1:55 AM 73.2 °F - 69.8 °F 89% 29.87 in 10.0 mi SSE 4.6 mph - N/A   Clear
2:15 AM 72.5 °F - 69.8 °F 91% 29.87 in 10.0 mi SSE 3.5 mph - N/A   Clear
2:35 AM 72.5 °F - 69.8 °F 91% 29.86 in 10.0 mi SSE 5.8 mph - N/A   Clear
2:55 AM 71.8 °F - 69.6 °F 93% 29.86 in 10.0 mi SSE 3.5 mph - N/A   Clear
3:15 AM 71.4 °F - 69.4 °F 93% 29.86 in 10.0 mi SSE 4.6 mph - N/A   Clear
3:35 AM 71.1 °F - 69.4 °F 95% 29.86 in 10.0 mi SSE 4.6 mph - N/A   Clear
3:55 AM 71.1 °F - 69.4 °F 95% 29.86 in 10.0 mi SSE 4.6 mph - N/A   Clear
4:15 AM 70.9 °F - 69.6 °F 96% 29.86 in 10.0 mi SSE 4.6 mph - N/A   Clear
4:35 AM 71.1 °F - 69.8 °F 96% 29.86 in 10.0 mi SSE 5.8 mph - N/A   Clear
4:55 AM 71.1 °F - 70.0 °F 96% 29.87 in 10.0 mi South 4.6 mph - N/A   Scattered Clouds
5:15 AM 71.6 °F - 70.7 °F 97% 29.88 in 10.0 mi SE 5.8 mph - N/A   Overcast
5:35 AM 71.2 °F - 70.3 °F 97% 29.90 in 10.0 mi SE 4.6 mph - N/A   Mostly Cloudy
5:55 AM 71.2 °F - 70.3 °F 97% 29.91 in 10.0 mi SE 3.5 mph - N/A   Mostly Cloudy
6:15 AM 71.2 °F - 70.3 °F 97% 29.92 in 10.0 mi SE 5.8 mph - N/A   Scattered Clouds
6:35 AM 71.2 °F - 70.3 °F 97% 29.92 in 10.0 mi SSE 5.8 mph - N/A   Clear
6:55 AM 71.2 °F - 70.7 °F 98% 29.92 in 10.0 mi SSE 8.1 mph - N/A   Scattered Clouds
7:15 AM 71.6 °F - 70.9 °F 98% 29.92 in 10.0 mi SSE 9.2 mph - N/A   Scattered Clouds
7:35 AM 72.1 °F - 71.1 °F 96% 29.93 in 10.0 mi South 8.1 mph - N/A   Scattered Clouds
7:55 AM 73.0 °F - 71.8 °F 96% 29.92 in 10.0 mi South 12.7 mph 16.1 mph N/A   Scattered Clouds
8:15 AM 73.8 °F - 71.8 °F 93% 29.92 in 10.0 mi South 12.7 mph 16.1 mph N/A   Mostly Cloudy
8:35 AM 75.0 °F - 71.8 °F 90% 29.93 in 10.0 mi South 12.7 mph 17.3 mph N/A   Overcast
8:55 AM 76.3 °F - 71.2 °F 84% 29.93 in 10.0 mi South 13.8 mph 20.7 mph N/A   Overcast
9:15 AM 77.0 °F - 70.3 °F 80% 29.94 in 10.0 mi South 16.1 mph 24.2 mph N/A   Overcast
9:35 AM 79.7 °F - 70.9 °F 74% 29.95 in 10.0 mi South 15.0 mph 19.6 mph N/A   Overcast
9:55 AM 80.1 °F 83.4 °F 70.7 °F 73% 29.96 in 10.0 mi SSW 12.7 mph - N/A   Overcast
10:15 AM 80.8 °F 84.4 °F 70.5 °F 71% 29.97 in 10.0 mi South 15.0 mph - N/A   Mostly Cloudy
10:35 AM 80.8 °F 84.2 °F 70.3 °F 70% 29.97 in 10.0 mi SSW 13.8 mph 18.4 mph N/A   Scattered Clouds
10:55 AM 82.9 °F 87.2 °F 70.3 °F 66% 29.97 in 10.0 mi South 17.3 mph 23.0 mph N/A   Scattered Clouds
11:15 AM 84.0 °F 89.0 °F 71.1 °F 65% 29.97 in 10.0 mi SSW 15.0 mph 18.4 mph N/A   Mostly Cloudy
11:35 AM 83.7 °F 88.3 °F 70.9 °F 65% 29.97 in 10.0 mi SSW 13.8 mph - N/A   Mostly Cloudy
11:55 AM 84.6 °F 89.1 °F 70.3 °F 62% 29.97 in 10.0 mi SSW 16.1 mph 20.7 mph N/A   Scattered Clouds
12:15 PM 86.0 °F 90.7 °F 70.3 °F 59% 29.97 in 10.0 mi SSW 16.1 mph 23.0 mph N/A   Scattered Clouds
12:35 PM 85.3 °F 89.8 °F 70.0 °F 60% 29.97 in 10.0 mi SSW 17.3 mph 21.9 mph N/A   Scattered Clouds
12:55 PM 86.0 °F 90.7 °F 70.0 °F 59% 29.97 in 10.0 mi South 15.0 mph 19.6 mph N/A   Mostly Cloudy
1:15 PM 87.1 °F 92.0 °F 70.2 °F 57% 29.97 in 10.0 mi South 10.4 mph 17.3 mph N/A   Scattered Clouds
1:35 PM 86.7 °F 91.7 °F 70.2 °F 58% 29.97 in 10.0 mi South 13.8 mph 17.3 mph N/A   Mostly Cloudy
1:55 PM 87.3 °F 92.4 °F 70.2 °F 57% 29.97 in 10.0 mi South 6.9 mph 10.4 mph N/A   Mostly Cloudy
2:15 PM 87.4 °F 92.7 °F 70.7 °F 57% 29.96 in 10.0 mi SSE 9.2 mph 21.9 mph N/A   Mostly Cloudy
2:35 PM 88.0 °F 92.9 °F 70.2 °F 55% 29.95 in 10.0 mi South 12.7 mph - N/A   Scattered Clouds
2:55 PM 88.3 °F 94.1 °F 70.7 °F 56% 29.94 in 10.0 mi South 11.5 mph 16.1 mph N/A   Scattered Clouds
3:15 PM 88.2 °F 92.9 °F 69.6 °F 54% 29.94 in 10.0 mi South 12.7 mph 18.4 mph N/A   Scattered Clouds
3:35 PM 88.7 °F 94.3 °F 70.5 °F 55% 29.93 in 10.0 mi SSE 12.7 mph 17.3 mph N/A   Scattered Clouds
3:55 PM 89.2 °F 94.1 °F 69.6 °F 52% 29.92 in 10.0 mi South 10.4 mph 18.4 mph N/A   Scattered Clouds
4:15 PM 88.7 °F 94.3 °F 70.5 °F 55% 29.92 in 10.0 mi SSE 8.1 mph 16.1 mph N/A   Scattered Clouds
4:35 PM 89.8 °F 95.1 °F 70.2 °F 52% 29.91 in 10.0 mi South 13.8 mph 19.6 mph N/A   Clear
4:55 PM 89.6 °F 94.7 °F 70.0 °F 52% 29.90 in 10.0 mi South 12.7 mph - N/A   Scattered Clouds
5:15 PM 89.6 °F 95.2 °F 70.3 °F 53% 29.89 in 10.0 mi SSE 12.7 mph 17.3 mph N/A   Clear
5:35 PM 89.6 °F 95.2 °F 70.5 °F 53% 29.89 in 10.0 mi South 13.8 mph - N/A   Clear
5:55 PM 89.6 °F 95.7 °F 70.7 °F 54% 29.88 in 10.0 mi South 13.8 mph 18.4 mph N/A   Clear
6:15 PM 88.5 °F 94.4 °F 71.2 °F 56% 29.87 in 10.0 mi SSE 10.4 mph - N/A   Clear
6:35 PM 87.8 °F 93.4 °F 70.9 °F 57% 29.86 in 10.0 mi SSE 12.7 mph - N/A   Clear
6:55 PM 87.8 °F 93.4 °F 70.9 °F 57% 29.86 in 10.0 mi SSE 10.4 mph 17.3 mph N/A   Clear
7:15 PM 86.9 °F 92.5 °F 71.2 °F 59% 29.86 in 10.0 mi SSE 6.9 mph - N/A   Clear
7:35 PM 86.2 °F 91.8 °F 71.2 °F 61% 29.86 in 10.0 mi SSE 8.1 mph - N/A   Clear
7:55 PM 84.9 °F 90.4 °F 71.6 °F 64% 29.86 in 10.0 mi SSE 8.1 mph - N/A   Clear
8:15 PM 83.5 °F 88.5 °F 71.6 °F 67% 29.85 in 10.0 mi South 8.1 mph - N/A   Clear
8:35 PM 81.7 °F 86.0 °F 71.6 °F 71% 29.85 in 10.0 mi South 5.8 mph - N/A   Clear
8:55 PM 80.6 °F 84.6 °F 71.6 °F 74% 29.85 in 10.0 mi SSE 6.9 mph - N/A   Clear
9:15 PM 79.5 °F - 71.6 °F 77% 29.84 in 10.0 mi SSE 6.9 mph - N/A   Clear
9:35 PM 79.3 °F - 71.2 °F 76% 29.84 in 10.0 mi SSE 6.9 mph - N/A   Clear
9:55 PM 78.8 °F - 71.2 °F 78% 29.84 in 10.0 mi SSE 8.1 mph - N/A   Clear
10:15 PM 78.3 °F - 71.2 °F 79% 29.84 in 10.0 mi SSE 8.1 mph - N/A   Clear
10:35 PM 78.4 °F - 70.9 °F 77% 29.84 in 10.0 mi South 8.1 mph - N/A   Clear
10:55 PM 79.0 °F - 70.3 °F 75% 29.86 in 10.0 mi South 9.2 mph - N/A   Clear
11:15 PM 79.2 °F - 69.8 °F 73% 29.88 in 10.0 mi South 9.2 mph - N/A   Clear
11:55 PM 78.3 °F - 69.6 °F 75% 29.87 in 10.0 mi South 12.7 mph 18.4 mph N/A   Clear